Regional Weather Roundup
Issued by NWS Cleveland, OH

Home | Current Version | Previous Version | Text Only | Print | Product List | Glossary Off
Versions: 1 2 3 4 5 6 7 8 9 10 11 12 13 14 15 16 17 18 19 20 21 22 23 24 25 26 27 28 29 30 31 32 33 34 35 36 37 38 39 40 41 42 43 44 45 46 47 48 49 50

000
ASUS41 KCLE 040510
RWRCLE
OHIO REGIONAL WEATHER ROUNDUP
NATIONAL WEATHER SERVICE CLEVELAND, OH
100 AM EDT MON MAY 04 2015

NOTE: "FAIR" INDICATES FEW OR NO CLOUDS BELOW 12,000 FEET WITH NO
SIGNIFICANT WEATHER AND/OR OBSTRUCTIONS TO VISIBILITY.

OHZ001>008-015>018-024>027-034-035-043-044-040600-
   NORTHWEST OHIO

CITY           SKY/WX    TMP DP  RH WIND       PRES   REMARKS
DEFIANCE       PTCLDY    64  48  56 S8        30.04R
FINDLAY        CLEAR     58  47  66 S9        30.05R
TOLEDO EXPRESS PTCLDY    63  46  54 S6        30.04R
TOLEDO EXEC    PTCLDY    63  46  54 S9        30.05R
LIMA           PTCLDY    59  47  64 S7        30.07R
$$

OHZ009>014-019>023-028>033-038-089-040600-
   NORTHEAST OHIO

CITY           SKY/WX    TMP DP  RH WIND       PRES   REMARKS
CLE-HOPKINS    MOCLDY    65  44  46 S9        30.10R
CLE-LAKEFRONT  CLEAR     68  44  42 SE10      30.06R
CUY CO. ARPT   NOT AVBL
LORAIN-ELYRIA  PTCLDY    62  45  53 S6        30.08R
ASHTABULA      PTCLDY    58  43  57 S5        30.10R
AKRON-CANTON   PTCLDY    60  42  51 S7        30.11S
WOOSTER        CLEAR     54  45  71 CALM      30.11S
MANSFIELD      CLEAR     60  45  57 S6        30.10S
YOUNGSTOWN     CLOUDY    64  42  44 S8        30.11S
$$

OHZ042-051>053-060>062-070>072-077>081-040600-
  SOUTHWEST OHIO

CITY           SKY/WX    TMP DP  RH WIND       PRES   REMARKS
CINC-COVINGTON CLEAR     61  46  57 S6        30.09S
CINC-LUNKEN    CLEAR     56  51  84 SW3       30.10S
HAMILTON       CLEAR     55  50  83 CALM      30.09S
DAYTON         CLEAR     66  47  50 S8        30.09S
WRIGHT-PAT AFB CLEAR     62  46  56 CALM      30.08S
DAYTON GENERAL CLEAR     61  46  57 S6        30.08F
WILMINGTON     CLEAR     59  44  57 S5        30.10F
$$

OHZ036-037-039>041-045>050-054>059-063>069-073>076-082>088-040600-
  CENTRAL AND SOUTHEAST OHIO

CITY           SKY/WX    TMP DP  RH WIND       PRES   REMARKS
COLUMBUS       CLEAR     59  48  67 CALM      30.09S
OSU AIRPORT    FAIR      64  42  44 S5        30.09S
BOLTON FIELD   CLEAR     59  45  58 S13       30.10S
RICKENBACK AFB CLEAR     58  45  62 CALM      30.09S
NEWARK         CLEAR     50  47  89 CALM      30.10S
MARION         PTCLDY    58  44  60 S8        30.09S
LANCASTER      CLEAR     52  47  83 S5        30.11S
ZANESVILLE     CLEAR     54  44  69 CALM      30.11F
NEW PHILLY     CLEAR     55  45  68 SE3       30.12S
$$


USA.gov is the U.S. government's official web portal to all federal, state and local government web resources and services.